• In France
  • List of Countries
  • For 7 days
  • Water Temperature
  • Satellite Maps
  • Weather Map
  • Weather Widgets
  • user-avatar
    Login

    Hourly Weather Medellín

    Today, 20 August, Monday

    Time Temperature Precipitation Wind Pressure Humidity
    00:00 +12°C° 0 mm 1 mps 585 mmHg 83%
    01:00 +12°C° 0 mm 1 mps 585 mmHg 83%
    02:00 +12°C° 0 mm 1 mps 585 mmHg 83%
    03:00 +11°C° 0 mm 1 mps 585 mmHg 83%
    04:00 +11°C° 0 mm 1 mps 585 mmHg 83%
    05:00 +12°C° 0 mm 1 mps 585 mmHg 80%
    06:00 +12°C° 0 mm 1 mps 585 mmHg 77%
    07:00 +13°C° 0 mm 1 mps 586 mmHg 74%
    08:00 +16°C° 0 mm 1 mps 587 mmHg 61%
    09:00 +20°C° 0 mm 1 mps 589 mmHg 47%
    10:00 +24°C° 0 mm 2 mps 590 mmHg 34%
    11:00 +25°C° 0 mm 2 mps 590 mmHg 31%
    12:00 +26°C° 0 mm 2 mps 590 mmHg 28%
    13:00 +28°C° 0 mm 2 mps 590 mmHg 24%
    14:00 +27°C° 0 mm 2 mps 589 mmHg 26%
    15:00 +27°C° 0 mm 2 mps 589 mmHg 28%
    16:00 +26°C° 0 mm 2 mps 588 mmHg 29%
    17:00 +23°C° 0 mm 2 mps 587 mmHg 40%
    18:00 +19°C° 0 mm 2 mps 586 mmHg 50%
    19:00 +16°C° 0 mm 1 mps 586 mmHg 60%
    20:00 +15°C° 0.1 mm 1 mps 586 mmHg 63%
    21:00 +14°C° 0.1 mm 1 mps 586 mmHg 66%
    22:00 +14°C° 0.1 mm 1 mps 586 mmHg 69%
    23:00 +13°C° 0.1 mm 1 mps 586 mmHg 69%

    Tomorrow, 21 August, Tuesday

    Time Temperature Precipitation Wind Pressure Humidity
    00:00 +13°C° 0.1 mm 1 mps 586 mmHg 70%
    01:00 +13°C° 0.1 mm 1 mps 586 mmHg 71%
    02:00 +13°C° 0 mm 1 mps 585 mmHg 71%
    03:00 +12°C° 0 mm 1 mps 585 mmHg 72%
    04:00 +12°C° 0 mm 1 mps 585 mmHg 73%
    05:00 +12°C° 0 mm 1 mps 585 mmHg 71%
    06:00 +13°C° 0 mm 1 mps 586 mmHg 69%
    07:00 +14°C° 0 mm 1 mps 586 mmHg 68%
    08:00 +16°C° 0 mm 1 mps 588 mmHg 59%
    09:00 +20°C° 0 mm 1 mps 589 mmHg 50%
    10:00 +23°C° 0 mm 2 mps 590 mmHg 40%
    11:00 +24°C° 0.1 mm 2 mps 590 mmHg 39%
    12:00 +25°C° 0.1 mm 2 mps 590 mmHg 38%
    13:00 +25°C° 0.1 mm 2 mps 589 mmHg 36%
    14:00 +25°C° 0.1 mm 2 mps 589 mmHg 37%
    15:00 +25°C° 0.1 mm 1 mps 588 mmHg 38%
    16:00 +25°C° 0.1 mm 1 mps 587 mmHg 38%
    17:00 +22°C° 0.1 mm 1 mps 587 mmHg 47%
    18:00 +19°C° 0.1 mm 1 mps 586 mmHg 56%
    19:00 +16°C° 0.1 mm 1 mps 585 mmHg 65%
    20:00 +15°C° 0.2 mm 1 mps 586 mmHg 70%
    21:00 +14°C° 0.2 mm 1 mps 586 mmHg 76%
    22:00 +13°C° 0.2 mm 1 mps 586 mmHg 81%
    23:00 +13°C° 0.3 mm 1 mps 586 mmHg 81%

    Day after tomorrow, 22 August, Wednesday

    Time Temperature Precipitation Wind Pressure Humidity
    00:00 +13°C° 0.3 mm 1 mps 586 mmHg 81%
    01:00 +13°C° 0.3 mm 1 mps 585 mmHg 81%
    02:00 +13°C° 0.1 mm 1 mps 585 mmHg 80%
    03:00 +12°C° 0.1 mm 1 mps 585 mmHg 79%
    04:00 +12°C° 0.1 mm 1 mps 585 mmHg 78%
    05:00 +13°C° 0.1 mm 1 mps 585 mmHg 78%
    06:00 +13°C° 0.1 mm 1 mps 586 mmHg 77%
    07:00 +14°C° 0.1 mm 1 mps 586 mmHg 77%
    08:00 +16°C° 0.1 mm 1 mps 587 mmHg 67%
    09:00 +20°C° 0.1 mm 1 mps 589 mmHg 57%
    10:00 +23°C° 0.1 mm 1 mps 590 mmHg 47%
    11:00 +24°C° 0.1 mm 1 mps 590 mmHg 44%
    12:00 +25°C° 0.1 mm 1 mps 590 mmHg 41%
    13:00 +26°C° 0.1 mm 2 mps 589 mmHg 38%
    14:00 +26°C° 0.2 mm 2 mps 589 mmHg 38%
    15:00 +25°C° 0.2 mm 2 mps 588 mmHg 37%
    16:00 +25°C° 0.2 mm 1 mps 588 mmHg 37%
    17:00 +23°C° 0.3 mm 1 mps 587 mmHg 45%
    18:00 +20°C° 0.3 mm 1 mps 586 mmHg 54%
    19:00 +18°C° 0.3 mm 1 mps 586 mmHg 62%
    20:00 +16°C° 0.1 mm 1 mps 586 mmHg 65%
    21:00 +15°C° 0.1 mm 1 mps 586 mmHg 69%
    22:00 +15°C° 0.1 mm 1 mps 587 mmHg 73%
    23:00 +14°C° 0 mm 1 mps 586 mmHg 74%

    23 August, Thursday

    Time Temperature Precipitation Wind Pressure Humidity
    00:00 +14°C° 0 mm 1 mps 586 mmHg 76%
    01:00 +13°C° 0 mm 1 mps 586 mmHg 77%
    02:00 +13°C° 0 mm 1 mps 585 mmHg 77%
    03:00 +13°C° 0 mm 1 mps 585 mmHg 76%
    04:00 +12°C° 0 mm 1 mps 585 mmHg 76%
    05:00 +13°C° 0.1 mm 1 mps 585 mmHg 75%
    06:00 +13°C° 0.1 mm 1 mps 586 mmHg 74%
    07:00 +13°C° 0.1 mm 1 mps 586 mmHg 73%
    08:00 +15°C° 0.3 mm 1 mps 587 mmHg 69%
    09:00 +18°C° 0.3 mm 1 mps 588 mmHg 65%
    10:00 +20°C° 0.3 mm 1 mps 589 mmHg 61%
    11:00 +21°C° 0.2 mm 1 mps 589 mmHg 57%
    12:00 +22°C° 0.2 mm 1 mps 589 mmHg 54%
    13:00 +23°C° 0.2 mm 1 mps 589 mmHg 51%
    14:00 +23°C° 0.2 mm 1 mps 588 mmHg 50%
    15:00 +23°C° 0.2 mm 1 mps 588 mmHg 48%
    16:00 +23°C° 0.2 mm 1 mps 587 mmHg 47%
    17:00 +20°C° 0.1 mm 1 mps 587 mmHg 55%
    18:00 +18°C° 0.1 mm 1 mps 586 mmHg 63%
    19:00 +15°C° 0.1 mm 1 mps 586 mmHg 71%
    20:00 +14°C° 0 mm 1 mps 586 mmHg 75%
    21:00 +14°C° 0 mm 1 mps 586 mmHg 79%
    22:00 +13°C° 0 mm 1 mps 586 mmHg 83%
    23:00 +13°C° 0.1 mm 1 mps 586 mmHg 84%

    24 August, Friday

    Time Temperature Precipitation Wind Pressure Humidity
    00:00 +13°C° 0.1 mm 1 mps 586 mmHg 85%
    01:00 +13°C° 0.1 mm 1 mps 585 mmHg 86%
    02:00 +13°C° 0.3 mm 1 mps 585 mmHg 87%
    03:00 +12°C° 0.3 mm 1 mps 585 mmHg 87%
    04:00 +12°C° 0.3 mm 1 mps 585 mmHg 88%
    05:00 +13°C° 0.4 mm 1 mps 585 mmHg 87%
    06:00 +13°C° 0.4 mm 1 mps 586 mmHg 86%
    07:00 +12°C° 0.4 mm 0 mps 586 mmHg 85%
    08:00 +15°C° 0.4 mm 1 mps 587 mmHg 80%
    09:00 +18°C° 0.4 mm 1 mps 588 mmHg 75%
    10:00 +19°C° 0.4 mm 1 mps 589 mmHg 70%
    11:00 +21°C° 0.2 mm 1 mps 589 mmHg 63%
    12:00 +22°C° 0.2 mm 1 mps 589 mmHg 56%
    13:00 +24°C° 0.2 mm 1 mps 589 mmHg 49%
    14:00 +23°C° 0.4 mm 1 mps 588 mmHg 52%
    15:00 +23°C° 0.4 mm 1 mps 588 mmHg 55%
    16:00 +22°C° 0.4 mm 1 mps 587 mmHg 58%
    17:00 +20°C° 0.5 mm 1 mps 587 mmHg 65%
    18:00 +18°C° 0.5 mm 1 mps 586 mmHg 73%
    19:00 +15°C° 0.5 mm 1 mps 586 mmHg 81%
    20:00 +15°C° 0.2 mm 1 mps 586 mmHg 85%
    21:00 +14°C° 0.2 mm 1 mps 586 mmHg 88%
    22:00 +14°C° 0.2 mm 1 mps 587 mmHg 91%
    23:00 +13°C° 0.3 mm 1 mps 586 mmHg 91%

    25 August, Saturday

    Time Temperature Precipitation Wind Pressure Humidity
    00:00 +13°C° 0.3 mm 1 mps 586 mmHg 91%
    01:00 +13°C° 0.3 mm 1 mps 586 mmHg 91%
    02:00 +13°C° 0.4 mm 1 mps 586 mmHg 91%
    03:00 +13°C° 0.4 mm 1 mps 585 mmHg 90%
    04:00 +12°C° 0.4 mm 1 mps 585 mmHg 90%
    05:00 +13°C° 0.1 mm 1 mps 586 mmHg 89%
    06:00 +13°C° 0.1 mm 1 mps 586 mmHg 87%
    07:00 +13°C° 0.1 mm 1 mps 587 mmHg 86%
    08:00 +15°C° 0.1 mm 1 mps 588 mmHg 77%
    09:00 +18°C° 0.1 mm 1 mps 589 mmHg 67%
    10:00 +20°C° 0.1 mm 1 mps 590 mmHg 58%
    11:00 +21°C° 0.3 mm 1 mps 589 mmHg 58%
    12:00 +21°C° 0.3 mm 1 mps 589 mmHg 58%
    13:00 +22°C° 0.3 mm 1 mps 588 mmHg 59%
    14:00 +22°C° 0.3 mm 1 mps 588 mmHg 57%
    15:00 +22°C° 0.3 mm 1 mps 587 mmHg 56%
    16:00 +22°C° 0.3 mm 1 mps 587 mmHg 55%
    17:00 +20°C° 0.2 mm 1 mps 587 mmHg 62%
    18:00 +18°C° 0.2 mm 1 mps 586 mmHg 69%
    19:00 +15°C° 0.2 mm 1 mps 586 mmHg 76%
    20:00 +14°C° 0.1 mm 1 mps 586 mmHg 79%
    21:00 +14°C° 0.1 mm 1 mps 586 mmHg 82%
    22:00 +13°C° 0.1 mm 1 mps 587 mmHg 85%
    23:00 +13°C° 0.5 mm 1 mps 586 mmHg 86%
    Show more